Location: Dayton
(39.7590°N, 84.1920°W)
Time: 00:55:25
(UTC-04:00)

ATLAS CENTAUR R/B - Visible Passes

Search period start: 01 October 2016 00:00
Search period end: 11 October 2016 00:00
Orbit: 222 x 8137 km, 57.3° (Epoch: 29 September)

Date Brightness Start Highest point End Pass type
(mag) Time Alt. Az. Time Alt. Az. Time Alt. Az.
01 Oct 6.6 01:40:07 10° NW 01:59:43 65° NE 02:54:06 10° ESE visible
01 Oct 7.0 04:48:37 10° NW 05:17:35 62° WSW 06:10:54 10° S visible
01 Oct 5.9 22:31:10 10° WNW 22:40:20 42° N 23:09:03 10° ENE visible
02 Oct 6.6 01:39:15 10° NW 01:59:07 67° NE 02:53:50 10° SE visible
02 Oct 7.1 04:47:45 10° NW 05:16:38 60° WSW 06:09:23 10° S visible
02 Oct 3.3 19:23:30 10° SSW 19:27:50 78° SE 19:41:19 10° NE visible
02 Oct 5.9 22:30:07 10° WNW 22:39:31 41° N 23:08:55 10° ENE visible
03 Oct 6.6 01:38:05 10° NW 01:58:13 68° NE 02:53:11 10° SE visible
03 Oct 7.1 04:46:38 10° NW 05:15:24 57° WSW 06:07:33 10° S visible
03 Oct 3.4 19:22:01 10° SW 19:26:23 85° SE 19:40:07 10° NE visible
03 Oct 5.9 22:28:47 10° WNW 22:38:25 41° N 23:08:29 10° ENE visible
04 Oct 6.6 01:36:38 10° NW 01:56:59 70° NE 02:52:11 10° SE visible
04 Oct 7.1 04:45:13 10° NW 05:13:50 55° WSW 06:05:25 10° S visible
04 Oct 3.5 19:20:16 10° SW 19:24:41 89° NW 19:38:38 10° NE visible
04 Oct 6.0 22:27:10 10° WNW 22:37:01 41° N 23:07:45 10° ENE visible
05 Oct 6.6 01:34:55 10° NW 01:55:28 72° NE 02:50:50 10° SE visible
05 Oct 7.1 04:43:32 10° NW 05:12:00 53° WSW 06:02:57 10° S visible
05 Oct 3.5 19:18:16 10° SW 19:22:43 83° NW 19:36:50 10° NE visible
05 Oct 6.0 22:25:16 10° WNW 22:35:20 41° N 23:06:43 10° ENE visible
06 Oct 6.5 01:32:54 10° NW 01:53:38 73° NE 02:49:09 10° SE visible
06 Oct 7.1 04:41:34 10° NW 05:09:52 51° WSW 06:00:11 10° S visible
06 Oct 3.6 19:16:01 10° SW 19:20:30 77° NW 19:34:46 10° NE visible
06 Oct 6.0 22:23:05 10° WNW 22:33:21 42° N 23:05:21 10° ENE visible
07 Oct 6.5 01:30:37 10° NW 01:51:30 75° NE 02:47:06 10° SE visible
07 Oct 7.1 04:39:21 10° NW 05:07:26 49° WSW 05:57:08 10° S visible
07 Oct 3.8 19:13:30 10° SW 19:18:02 72° NW 19:32:25 10° NE visible
07 Oct 6.0 22:20:38 10° WNW 22:31:05 42° N 23:03:41 10° E visible
08 Oct 6.5 01:28:04 10° NW 01:49:03 77° NE 02:44:44 10° SE visible
08 Oct 7.1 04:36:51 10° NW 05:04:43 48° WSW 05:53:45 10° S visible
08 Oct 3.9 19:10:43 10° WSW 19:15:18 68° NW 19:29:46 10° NE visible
08 Oct 6.0 22:17:53 10° WNW 22:28:31 42° NNE 23:01:42 10° E visible
09 Oct 6.5 01:25:13 10° NW 01:46:19 78° NE 02:42:01 10° SE visible
09 Oct 7.1 04:34:04 10° NW 05:01:42 46° WSW 05:50:05 10° SSW visible
09 Oct 6.1 22:14:52 10° WNW 22:25:40 42° NNE 22:59:22 10° E visible
10 Oct 6.5 01:22:05 10° NW 01:43:16 80° NE 02:38:59 10° SE visible
10 Oct 7.1 04:31:01 10° NW 04:58:23 44° WSW 05:46:07 10° SSW visible
10 Oct 6.1 22:11:34 10° NW 22:22:30 43° NNE 22:56:43 10° E visible
